FW5305 Weather Reports


time (UTC)temp
C
wind
direction
speed
KPH
gust
KPH
rain 1hr
cm
rain 24hr
cm
rain mn
cm
humidity
%
barometer
mb
20220927003107 13 317 4.8 12.9 0.00 0.00 0.00 38 1022.1
20220927001559 13 323 6.4 17.7 0.00 0.00 0.00 36 1022.0
20220927000049 13 311 9.7 22.5 0.00 0.00 0.00 35 1022.0
20220926234553 14 349 11.3 20.9 0.00 0.00 0.00 34 1022.1
20220926233058 15 321 12.9 22.5 0.00 0.00 0.00 31 1022.0
20220926231551 16 340 14.5 30.6 0.00 0.00 0.00 29 1021.9
20220926230051 16 321 11.3 30.6 0.00 0.00 0.00 29 1022.1
20220926224608 16 311 17.7 29.0 0.00 0.00 0.00 27 1021.9
20220926223108 16 346 16.1 32.2 0.00 0.00 0.00 25 1021.7
20220926221554 17 342 16.1 32.2 0.00 0.00 0.00 25 1022.0
20220926220111 17 328 20.9 38.6 0.00 0.00 0.00 24 1022.0
20220926214611 17 317 17.7 35.4 0.00 0.00 0.00 23 1021.8
20220926213102 17 324 17.7 35.4 0.00 0.00 0.00 23 1021.8
20220926211553 17 360 17.7 30.6 0.00 0.00 0.00 21 1021.8
20220926210125 17 317 19.3 32.2 0.00 0.00 0.00 21 1021.9
20220926204611 17 328 14.5 30.6 0.00 0.00 0.00 19 1021.9
20220926203105 17 315 16.1 41.8 0.00 0.00 0.00 20 1021.9
20220926201603 17 19 17.7 32.2 0.00 0.00 0.00 20 1022.0
20220926200053 16 299 20.9 37.0 0.00 0.00 0.00 21 1022.0
20220926194649 17 304 17.7 33.8 0.00 0.00 0.00 23 1021.9
20220926193125 17 329 17.7 32.2 0.00 0.00 0.00 26 1021.9
20220926191628 16 330 16.1 35.4 0.00 0.00 0.00 26 1022.2
20220926190052 15 312 12.9 32.2 0.00 0.00 0.00 29 1022.5
20220926184553 15 334 20.9 32.2 0.00 0.00 0.00 28 1022.6
20220926183055 16 302 14.5 25.7 0.00 0.00 0.00 32 1022.9
20220926181611 15 326 12.9 32.2 0.00 0.00 0.00 32 1022.7
20220926180108 15 320 19.3 29.0 0.00 0.00 0.00 34 1022.7
20220926174555 14 302 16.1 32.2 0.00 0.00 0.00 36 1022.8
20220926173053 14 308 17.7 29.0 0.00 0.00 0.00 39 1022.9
20220926171555 13 313 16.1 30.6 0.00 0.00 0.00 40 1023.0
20220926170102 13 300 17.7 38.6 0.00 0.00 0.00 39 1023.0
20220926164640 13 312 16.1 32.2 0.00 0.00 0.00 42 1023.2
20220926163051 12 315 24.1 40.2 0.00 0.00 0.00 43 1023.2
20220926161552 12 341 20.9 37.0 0.00 0.00 0.00 44 1023.1
20220926160054 12 336 16.1 35.4 0.00 0.00 0.00 46 1023.3
20220926154550 11 344 17.7 27.4 0.00 0.00 0.00 48 1023.2
20220926153116 11 327 9.7 24.1 0.00 0.00 0.00 50 1023.3
20220926151554 10 332 14.5 24.1 0.00 0.00 0.00 51 1023.4
20220926150108 10 311 14.5 25.7 0.00 0.00 0.00 51 1023.4
20220926144607 10 334 12.9 27.4 0.00 0.00 0.00 51 1023.3
20220926143116 10 301 12.9 25.7 0.00 0.00 0.00 51 1023.1
20220926141550 10 309 11.3 24.1 0.00 0.00 0.00 52 1023.0
20220926140050 9 284 12.9 22.5 0.00 0.00 0.00 53 1022.9
20220926134606 8 288 11.3 20.9 0.00 0.00 0.00 55 1022.6
20220926133053 8 314 9.7 17.7 0.00 0.00 0.00 56 1022.4
20220926131602 8 298 9.7 17.7 0.00 0.00 0.00 56 1022.3
20220926130105 7 309 6.4 17.7 0.00 0.00 0.00 56 1022.2
20220926124556 7 299 6.4 16.1 0.00 0.00 0.00 57 1022.0
20220926123055 7 270 8.0 16.1 0.00 0.00 0.00 57 1022.0
20220926121551 7 311 4.8 14.5 0.00 0.00 0.00 57 1021.9
20220926120102 7 290 8.0 17.7 0.00 0.00 0.00 57 1021.8
20220926114555 7 286 6.4 16.1 0.00 0.00 0.00 57 1021.5
20220926113050 7 292 6.4 17.7 0.00 0.00 0.00 56 1021.4
20220926111555 7 331 6.4 16.1 0.00 0.00 0.00 57 1021.4
20220926110057 7 321 6.4 16.1 0.00 0.00 0.00 57 1021.5
20220926104629 7 271 8.0 16.1 0.00 0.00 0.00 57 1021.4
20220926103122 7 300 6.4 14.5 0.00 0.00 0.00 57 1021.2
20220926101600 7 299 6.4 14.5 0.00 0.00 0.00 57 1021.1
20220926100051 7 311 4.8 11.3 0.00 0.00 0.00 57 1021.0
20220926094607 7 322 4.8 11.3 0.00 0.00 0.00 56 1021.0
20220926093214 7 304 6.4 14.5 0.00 0.00 0.00 55 1020.9
20220926091550 7 292 8.0 14.5 0.00 0.00 0.00 55 1020.8
20220926090056 7 315 4.8 12.9 0.00 0.00 0.00 55 1020.6
20220926084553 7 304 4.8 12.9 0.00 0.00 0.00 55 1020.6
20220926083120 7 300 6.4 14.5 0.00 0.00 0.00 55 1020.5
20220926081551 8 304 6.4 12.9 0.00 0.00 0.00 54 1020.5
20220926080052 8 302 6.4 12.9 0.00 0.00 0.00 54 1020.4
20220926074553 8 306 4.8 14.5 0.00 0.00 0.00 52 1020.6
20220926073050 8 306 6.4 19.3 0.00 0.00 0.00 52 1020.4
20220926071556 8 290 8.0 16.1 0.00 0.00 0.00 52 1020.5
20220926070051 8 294 8.0 20.9 0.00 0.00 0.00 51 1020.4
20220926064605 9 300 8.0 16.1 0.00 0.00 0.00 51 1020.4
20220926063137 9 321 8.0 17.7 0.00 0.00 0.00 49 1020.4
20220926061552 10 302 8.0 19.3 0.00 0.00 0.00 48 1020.6
20220926060055 10 287 6.4 17.7 0.00 0.00 0.00 48 1020.4
20220926054610 10 315 8.0 14.5 0.00 0.00 0.00 48 1020.5
20220926053052 10 325 8.0 22.5 0.00 0.00 0.00 48 1020.6
20220926051552 10 311 8.0 20.9 0.00 0.00 0.00 49 1020.6
20220926050103 10 311 4.8 12.9 0.00 0.00 0.00 49 1020.5
20220926044558 10 321 8.0 14.5 0.00 0.00 0.00 48 1020.4
20220926043057 10 318 8.0 14.5 0.00 0.00 0.00 48 1020.5
20220926041558 11 325 6.4 16.1 0.00 0.00 0.00 47 1020.6
20220926040105 11 331 9.7 19.3 0.00 0.00 0.00 46 1020.6
20220926034603 12 311 9.7 20.9 0.00 0.00 0.00 45 1020.4
20220926033058 12 311 8.0 17.7 0.00 0.00 0.00 45 1020.2
20220926031607 12 328 12.9 24.1 0.00 0.00 0.00 43 1020.2
20220926030054 12 332 9.7 19.3 0.00 0.00 0.00 43 1020.2
20220926024602 13 315 12.9 29.0 0.00 0.00 0.00 42 1020.1
20220926023101 13 318 14.5 24.1 0.00 0.00 0.00 42 1020.0
20220926021556 13 308 11.3 19.3 0.00 0.00 0.00 42 1020.1
20220926020134 13 313 11.3 22.5 0.00 0.00 0.00 41 1019.7
20220926014636 13 304 9.7 17.7 0.00 0.00 0.00 42 1019.7
20220926013055 13 315 8.0 16.1 0.00 0.00 0.00 41 1019.6
20220926011553 13 293 8.0 20.9 0.00 0.00 0.00 41 1019.4
20220926010054 13 294 9.7 22.5 0.00 0.00 0.00 41 1019.2
20220926004554 14 304 6.4 16.1 0.00 0.00 0.00 40 1019.0